Location: Cabo di Oristano
(39.8500°N, 8.4333°E)
Time: 16:41:37
(UTC+00:00)

USA 229 - Pass Details

Date: 31 January 2023
Orbit: 916 x 1296 km, 63.4° (Epoch: 30 March)

Event Time Altitude Azimuth Distance (km) Brightness Sun altitude
Exits shadow 05:50:26 - 242° (WSW) 3,598 6.0 -9.1°
Rises 05:50:29 0° 242° (WSW) 3,584 6.0 -9.1°
Reaches altitude 10° 05:53:11 10° 251° (WSW) 2,674 5.3 -8.6°
Maximum altitude 05:58:51 35° 316° (NW) 1,555 4.2 -7.5°
Drops below altitude 10° 06:04:57 10° 21° (NNE) 2,890 6.0 -6.4°
Sets 06:08:00 0° 30° (NNE) 3,911 6.8 -5.8°
